Location: LDNL
(36.4545°S, 141.6685°E)
Time: 12:18:34
(UTC+10:00)

Tiros 1 despin weight - Pass Details

Date: 11 August 2022
Orbit: 590 x 639 km, 48.2° (Epoch: 23 September)

Event Time Altitude Azimuth Distance (km) Brightness Sun altitude
Rises 23:26:41 0° 330° (NNW) 2,871 - -63.4°
Reaches altitude 10° 23:29:06 10° 338° (NNW) 1,982 - -63.7°
Maximum altitude 23:33:16 36° 44° (NE) 1,003 - -64.2°
Drops below altitude 10° 23:37:33 10° 110° (ESE) 2,028 - -64.7°
Sets 23:40:02 0° 118° (ESE) 2,949 - -65.0°
